QPF
0.00 0.00 0.00 0.00 0.00 0.00 0.00 0.00 0.00 0.00 0.00 0.00 0.00 0.00 0.00 0.00 0.00 0.00 0.00 0.00 0.00 0.00 0.00 0.01 0.01 0.01 0.01 0.02 0.02 0.01 0.01 0.01 0.01 0.00 0.00 0.00 0.00 0.00 0.00 0.00 0.00 0.00 0.00 0.00 0.00 0.00 0.00 0.00 0.00
0.00 0.00 0.00 0.00 0.00 0.00 0.00 0.00 0.00 0.00 0.00 0.00 0.00 0.00 0.00 0.00 0.00 0.00 0.00 0.00 0.00 0.00 0.00 0.01 0.01 0.01 0.01 0.01 0.01 0.01 0.01 0.01 0.00 0.00 0.00 0.01 0.01 0.00 0.00 0.00 0.00 0.00 0.00 0.00 0.00 0.00 0.00 0.00 0.00
0.00 0.00 0.00 0.00 0.00 0.00 0.00 0.00 0.00 0.00 0.00 0.00 0.00 0.00 0.00 0.00 0.00 0.00 0.00 0.00 0.00 0.00 0.00 0.00 0.01 0.01 0.01 0.01 0.01 0.01 0.01 0.01 0.00 0.01 0.01 0.01 0.00 0.00 0.00 0.00 0.00 0.00 0.00 0.00 0.00 0.00 0.00 0.00 0.00
0.00 0.00 0.00 0.00 0.00 0.00 0.00 0.00 0.00 0.00 0.00 0.00 0.00 0.00 0.00 0.00 0.00 0.00 0.00 0.00 0.00 0.00 0.00 0.00 0.01 0.01 0.01 0.01 0.01 0.01 0.01 0.01 0.01 0.01 0.00 0.00 0.00 0.00 0.00 0.00 0.00 0.00 0.00 0.00 0.00 0.00 0.00 0.00 0.00
0.00 0.00 0.00 0.00 0.00 0.00 0.00 0.00 0.00 0.00 0.00 0.00 0.00 0.00 0.00 0.00 0.00 0.00 0.00 0.00 0.00 0.00 0.00 0.00 0.01 0.01 0.01 0.01 0.01 0.01 0.01 0.01 0.01 0.00 0.00 0.00 0.00 0.00 0.00 0.00 0.00 0.00 0.00 0.00 0.00 0.00 0.00 0.00 0.00
0.00 0.00 0.00 0.00 0.00 0.00 0.00 0.00 0.00 0.00 0.00 0.00 0.00 0.00 0.00 0.00 0.00 0.00 0.00 0.00 0.00 0.00 0.00 0.00 0.01 0.01 0.02 0.01 0.02 0.01 0.01 0.01 0.01 0.01 0.00 0.00 0.00 0.00 0.00 0.00 0.00 0.00 0.00 0.00 0.00 0.00 0.00 0.00 0.00
0.00 0.00 0.00 0.00 0.00 0.00 0.00 0.00 0.00 0.00 0.00 0.00 0.00 0.00 0.00 0.00 0.00 0.00 0.00 0.00 0.00 0.00 0.00 0.00 0.01 0.01 0.01 0.02 0.02 0.01 0.01 0.01 0.01 0.01 0.01 0.00 0.00 0.00 0.00 0.00 0.00 0.00 0.00 0.00 0.00 0.00 0.00 0.00 0.00
0.00 0.00 0.00 0.00 0.00 0.00 0.00 0.00 0.00 0.00 0.00 0.00 0.00 0.00 0.00 0.00 0.00 0.00 0.00 0.00 0.00 0.00 0.00 0.00 0.00 0.01 0.01 0.01 0.02 0.01 0.01 0.01 0.01 0.01 0.01 0.01 0.00 0.00 0.00 0.00 0.00 0.00 0.00 0.00 0.00 0.00 0.00 0.00 0.00
0.00 0.00 0.00 0.00 0.00 0.00 0.00 0.00 0.00 0.00 0.00 0.00 0.00 0.00 0.00 0.00 0.00 0.00 0.00 0.00 0.00 0.00 0.00 0.00 0.00 0.00 0.01 0.01 0.01 0.01 0.01 0.01 0.01 0.01 0.01 0.01 0.01 0.00 0.00 0.00 0.00 0.00 0.00 0.00 0.01 0.01 0.00 0.00 0.00
0.00 0.00 0.00 0.00 0.00 0.00 0.00 0.00 0.00 0.00 0.00 0.00 0.00 0.00 0.00 0.00 0.00 0.00 0.00 0.00 0.00 0.00 0.00 0.00 0.00 0.00 0.01 0.01 0.01 0.01 0.01 0.01 0.01 0.01 0.01 0.00 0.01 0.00 0.00 0.00 0.00 0.00 0.00 0.00 0.00 0.00 0.00 0.00 0.00
0.00 0.00 0.00 0.00 0.00 0.00 0.00 0.00 0.00 0.00 0.00 0.00 0.00 0.00 0.00 0.00 0.00 0.00 0.00 0.00 0.00 0.00 0.00 0.00 0.00 0.00 0.01 0.01 0.01 0.01 0.01 0.01 0.01 0.01 0.01 0.01 0.00 0.00 0.00 0.00 0.00 0.00 0.00 0.00 0.00 0.00 0.00 0.00 0.00
0.00 0.00 0.00 0.00 0.00 0.00 0.00 0.00 0.00 0.00 0.00 0.00 0.00 0.00 0.00 0.00 0.00 0.00 0.00 0.00 0.00 0.00 0.00 0.00 0.00 0.00 0.01 0.01 0.01 0.01 0.01 0.01 0.01 0.01 0.01 0.01 0.01 0.01 0.01 0.01 0.00 0.00 0.00 0.00 0.00 0.00 0.00 0.00 0.00
0.00 0.00 0.00 0.00 0.00 0.00 0.00 0.00 0.00 0.00 0.00 0.00 0.00 0.00 0.00 0.00 0.00 0.00 0.00 0.00 0.00 0.00 0.00 0.00 0.00 0.00 0.01 0.01 0.01 0.01 0.01 0.01 0.01 0.01 0.01 0.01 0.01 0.01 0.01 0.01 0.00 0.00 0.00 0.00 0.00 0.00 0.00 0.00 0.00
0.00 0.00 0.00 0.00 0.00 0.00 0.00 0.00 0.00 0.00 0.00 0.00 0.00 0.00 0.00 0.00 0.00 0.00 0.00 0.00 0.00 0.00 0.00 0.00 0.00 0.00 0.00 0.01 0.01 0.01 0.01 0.01 0.01 0.01 0.01 0.01 0.01 0.01 0.01 0.00 0.00 0.00 0.00 0.00 0.00 0.00 0.00 0.00 0.00
0.00 0.00 0.00 0.00 0.00 0.00 0.00 0.00 0.00 0.00 0.00 0.00 0.00 0.00 0.00 0.00 0.00 0.00 0.00 0.00 0.00 0.00 0.00 0.00 0.00 0.00 0.00 0.01 0.01 0.01 0.01 0.01 0.01 0.01 0.01 0.00 0.00 0.01 0.01 0.01 0.01 0.00 0.00 0.00 0.00 0.00 0.00 0.00 0.00
0.00 0.00 0.00 0.00 0.00 0.00 0.00 0.00 0.00 0.00 0.00 0.00 0.00 0.00 0.00 0.00 0.00 0.00 0.00 0.00 0.00 0.00 0.00 0.00 0.00 0.00 0.00 0.01 0.01 0.01 0.01 0.01 0.01 0.01 0.01 0.01 0.01 0.01 0.01 0.01 0.01 0.00 0.00 0.00 0.00 0.00 0.00 0.00 0.00
0.00 0.00 0.00 0.00 0.00 0.00 0.00 0.00 0.00 0.00 0.00 0.00 0.00 0.00 0.00 0.00 0.00 0.00 0.00 0.00 0.00 0.00 0.00 0.00 0.00 0.00 0.00 0.01 0.01 0.01 0.01 0.01 0.00 0.01 0.01 0.01 0.01 0.01 0.01 0.01 0.01 0.01 0.01 0.01 0.01 0.01 0.00 0.00 0.00
0.00 0.00 0.00 0.00 0.00 0.00 0.00 0.00 0.00 0.00 0.00 0.00 0.00 0.00 0.00 0.00 0.00 0.00 0.00 0.00 0.00 0.00 0.00 0.00 0.00 0.00 0.00 0.01 0.01 0.01 0.01 0.00 0.00 0.00 0.01 0.00 0.00 0.00 0.00 0.00 0.00 0.00 0.00 0.01 0.01 0.00 0.00 0.00 0.00
0.00 0.00 0.00 0.00 0.00 0.00 0.00 0.00 0.00 0.00 0.00 0.00 0.00 0.00 0.00 0.00 0.00 0.00 0.00 0.00 0.00 0.00 0.00 0.00 0.00 0.00 0.00 0.01 0.01 0.01 0.01 0.00 0.00 0.00 0.00 0.00 0.00 0.00 0.00 0.00 0.00 0.00 0.00 0.00 0.00 0.00 0.00 0.00 0.00
0.00 0.00 0.00 0.00 0.00 0.00 0.00 0.00 0.00 0.00 0.00 0.00 0.00 0.00 0.00 0.00 0.00 0.00 0.00 0.00 0.00 0.00 0.00 0.00 0.00 0.00 0.00 0.00 0.00 0.00 0.00 0.00 0.00 0.00 0.00 0.00 0.00 0.00 0.00 0.00 0.00 0.00 0.00 0.00 0.00 0.00 0.00 0.00 0.00
0.00 0.00 0.00 0.00 0.00 0.00 0.00 0.00 0.00 0.00 0.00 0.00 0.00 0.00 0.00 0.00 0.00 0.00 0.00 0.00 0.00 0.00 0.00 0.00 0.00 0.00 0.00 0.00 0.00 0.00 0.00 0.00 0.00 0.00 0.00 0.00 0.00 0.00 0.00 0.00 0.00 0.00 0.00 0.00 0.00 0.00 0.00 0.00 0.00
0.00 0.00 0.00 0.00 0.00 0.00 0.00 0.00 0.00 0.00 0.00 0.00 0.00 0.00 0.00 0.00 0.00 0.00 0.00 0.00 0.00 0.00 0.00 0.00 0.00 0.00 0.00 0.00 0.00 0.00 0.00 0.00 0.00 0.00 0.00 0.00 0.00 0.00 0.00 0.00 0.00 0.00 0.00 0.00 0.00 0.00 0.00 0.00 0.00
0.00 0.00 0.00 0.00 0.00 0.00 0.00 0.00 0.00 0.00 0.00 0.00 0.00 0.00 0.00 0.00 0.00 0.00 0.00 0.00 0.00 0.00 0.00 0.00 0.00 0.00 0.00 0.00 0.00 0.00 0.00 0.00 0.00 0.00 0.00 0.00 0.00 0.00 0.00 0.00 0.00 0.00 0.00 0.00 0.00 0.00 0.00 0.00 0.00
0.00 0.00 0.00 0.00 0.00 0.00 0.00 0.00 0.00 0.00 0.00 0.00 0.00 0.00 0.00 0.00 0.00 0.00 0.00 0.00 0.00 0.00 0.00 0.00 0.00 0.00 0.00 0.00 0.00 0.00 0.00 0.00 0.00 0.00 0.00 0.00 0.00 0.00 0.00 0.00 0.00 0.00 0.00 0.00 0.00 0.00 0.00 0.00 0.00
0.00 0.00 0.00 0.00 0.00 0.00 0.00 0.00 0.00 0.00 0.00 0.00 0.00 0.00 0.00 0.00 0.00 0.00 0.00 0.00 0.00 0.00 0.00 0.00 0.00 0.00 0.00 0.00 0.00 0.00 0.00 0.00 0.00 0.00 0.00 0.00 0.00 0.00 0.00 0.00 0.00 0.00 0.00 0.00 0.00 0.00 0.00 0.00 0.00
0.00 0.00 0.00 0.00 0.00 0.00 0.00 0.00 0.00 0.00 0.00 0.00 0.00 0.00 0.00 0.00 0.00 0.00 0.00 0.00 0.00 0.00 0.00 0.00 0.00 0.00 0.00 0.00 0.00 0.00 0.00 0.00 0.00 0.00 0.00 0.00 0.00 0.00 0.00 0.00 0.00 0.00 0.00 0.00 0.00 0.00 0.00 0.00 0.00
0.00 0.00 0.00 0.00 0.00 0.00 0.00 0.00 0.00 0.00 0.00 0.00 0.00 0.00 0.00 0.00 0.00 0.00 0.00 0.00 0.00 0.00 0.00 0.00 0.00 0.00 0.00 0.00 0.00 0.00 0.00 0.00 0.00 0.00 0.00 0.00 0.00 0.00 0.00 0.00 0.00 0.00 0.00 0.00 0.00 0.00 0.00 0.00 0.00
0.00 0.00 0.00 0.00 0.00 0.00 0.00 0.00 0.00 0.00 0.00 0.00 0.00 0.00 0.00 0.00 0.00 0.00 0.00 0.00 0.00 0.00 0.00 0.00 0.00 0.00 0.00 0.00 0.00 0.00 0.00 0.00 0.00 0.00 0.00 0.00 0.00 0.00 0.00 0.00 0.00 0.00 0.00 0.00 0.00 0.00 0.00 0.00 0.00
0.00 0.00 0.00 0.00 0.00 0.00 0.00 0.00 0.00 0.00 0.00 0.00 0.00 0.00 0.00 0.00 0.00 0.00 0.00 0.00 0.00 0.00 0.00 0.00 0.00 0.00 0.00 0.00 0.00 0.00 0.00 0.00 0.00 0.00 0.00 0.00 0.00 0.00 0.00 0.00 0.00 0.00 0.00 0.00 0.00 0.00 0.00 0.00 0.00
0.00 0.00 0.00 0.00 0.00 0.00 0.00 0.00 0.00 0.00 0.00 0.00 0.00 0.00 0.00 0.00 0.00 0.00 0.00 0.00 0.00 0.00 0.00 0.00 0.00 0.00 0.00 0.00 0.00 0.00 0.00 0.00 0.00 0.00 0.00 0.00 0.00 0.00 0.00 0.00 0.00 0.00 0.00 0.00 0.00 0.00 0.00 0.00 0.00
MSLP
1014.88 1015.16 1015.52 1015.90 1016.25 1016.52 1016.69 1016.76 1016.73 1016.65 1016.55 1016.47 1016.42 1016.42 1016.46 1016.52 1016.59 1016.66 1016.75 1016.85 1017.01 1017.23 1017.54 1017.92 1018.37 1018.84 1019.30 1019.71 1020.05 1020.31 1020.50 1020.63 1020.75 1020.87 1021.01 1021.17 1021.33 1021.47 1021.56 1021.59 1021.56 1021.47 1021.36 1021.23 1021.13 1021.05 1021.02 1021.01 1021.01
1014.97 1015.32 1015.72 1016.11 1016.43 1016.63 1016.70 1016.63 1016.48 1016.28 1016.10 1015.97 1015.91 1015.94 1016.02 1016.15 1016.28 1016.41 1016.54 1016.68 1016.86 1017.10 1017.43 1017.85 1018.34 1018.86 1019.37 1019.82 1020.20 1020.49 1020.70 1020.86 1020.99 1021.14 1021.30 1021.50 1021.70 1021.87 1022.00 1022.06 1022.05 1021.96 1021.84 1021.71 1021.59 1021.51 1021.46 1021.45 1021.45
1015.10 1015.49 1015.91 1016.28 1016.54 1016.66 1016.62 1016.45 1016.19 1015.91 1015.67 1015.52 1015.47 1015.54 1015.69 1015.88 1016.09 1016.27 1016.44 1016.61 1016.80 1017.06 1017.39 1017.82 1018.33 1018.87 1019.42 1019.91 1020.32 1020.64 1020.88 1021.06 1021.22 1021.38 1021.57 1021.79 1022.01 1022.21 1022.36 1022.43 1022.42 1022.35 1022.23 1022.10 1021.98 1021.89 1021.85 1021.84 1021.84
1015.26 1015.66 1016.06 1016.39 1016.59 1016.62 1016.50 1016.25 1015.92 1015.59 1015.32 1015.17 1015.16 1015.27 1015.49 1015.75 1016.02 1016.26 1016.47 1016.66 1016.86 1017.11 1017.43 1017.85 1018.35 1018.90 1019.46 1019.97 1020.40 1020.75 1021.02 1021.22 1021.40 1021.59 1021.79 1022.02 1022.25 1022.45 1022.61 1022.69 1022.69 1022.62 1022.51 1022.39 1022.28 1022.21 1022.18 1022.17 1022.17
1015.45 1015.82 1016.18 1016.44 1016.57 1016.54 1016.36 1016.06 1015.69 1015.35 1015.09 1014.96 1014.98 1015.15 1015.42 1015.74 1016.07 1016.35 1016.59 1016.80 1017.00 1017.23 1017.54 1017.93 1018.41 1018.94 1019.48 1020.00 1020.45 1020.82 1021.11 1021.34 1021.54 1021.74 1021.94 1022.17 1022.39 1022.60 1022.75 1022.83 1022.84 1022.79 1022.70 1022.60 1022.51 1022.45 1022.42 1022.42 1022.42
1015.63 1015.96 1016.24 1016.44 1016.51 1016.43 1016.21 1015.89 1015.53 1015.21 1014.97 1014.88 1014.94 1015.15 1015.46 1015.82 1016.18 1016.50 1016.77 1016.98 1017.18 1017.40 1017.68 1018.04 1018.48 1018.98 1019.50 1020.01 1020.46 1020.84 1021.15 1021.40 1021.61 1021.82 1022.03 1022.25 1022.47 1022.66 1022.81 1022.89 1022.91 1022.88 1022.81 1022.74 1022.67 1022.62 1022.60 1022.60 1022.58
1015.80 1016.06 1016.26 1016.39 1016.40 1016.29 1016.07 1015.77 1015.44 1015.15 1014.95 1014.89 1014.98 1015.22 1015.55 1015.93 1016.31 1016.65 1016.93 1017.15 1017.35 1017.56 1017.81 1018.14 1018.54 1019.00 1019.50 1019.98 1020.43 1020.81 1021.14 1021.40 1021.63 1021.85 1022.06 1022.28 1022.49 1022.67 1022.81 1022.90 1022.93 1022.92 1022.88 1022.82 1022.77 1022.74 1022.71 1022.69 1022.66
1015.93 1016.11 1016.24 1016.30 1016.26 1016.14 1015.93 1015.66 1015.38 1015.14 1014.99 1014.96 1015.06 1015.30 1015.63 1016.01 1016.39 1016.74 1017.02 1017.26 1017.46 1017.66 1017.90 1018.20 1018.57 1019.00 1019.46 1019.92 1020.35 1020.74 1021.07 1021.36 1021.61 1021.84 1022.06 1022.27 1022.47 1022.65 1022.79 1022.88 1022.93 1022.93 1022.91 1022.87 1022.83 1022.80 1022.76 1022.71 1022.65
1016.02 1016.12 1016.18 1016.18 1016.11 1015.98 1015.80 1015.58 1015.35 1015.16 1015.04 1015.02 1015.13 1015.34 1015.65 1016.01 1016.38 1016.72 1017.01 1017.26 1017.47 1017.68 1017.92 1018.20 1018.54 1018.93 1019.36 1019.80 1020.22 1020.62 1020.96 1021.26 1021.53 1021.78 1022.01 1022.23 1022.43 1022.61 1022.75 1022.85 1022.90 1022.92 1022.92 1022.89 1022.85 1022.80 1022.74 1022.66 1022.57
1016.06 1016.10 1016.09 1016.04 1015.96 1015.83 1015.68 1015.50 1015.32 1015.16 1015.06 1015.05 1015.13 1015.31 1015.58 1015.90 1016.24 1016.57 1016.87 1017.14 1017.37 1017.59 1017.83 1018.10 1018.43 1018.80 1019.20 1019.63 1020.04 1020.43 1020.79 1021.12 1021.41 1021.67 1021.92 1022.15 1022.35 1022.54 1022.68 1022.79 1022.85 1022.89 1022.89 1022.86 1022.82 1022.76 1022.67 1022.57 1022.44
1016.05 1016.04 1015.99 1015.91 1015.81 1015.70 1015.57 1015.42 1015.27 1015.14 1015.04 1015.00 1015.05 1015.18 1015.39 1015.67 1015.98 1016.30 1016.61 1016.88 1017.14 1017.38 1017.63 1017.91 1018.23 1018.59 1018.98 1019.39 1019.80 1020.20 1020.57 1020.92 1021.23 1021.52 1021.78 1022.02 1022.23 1022.42 1022.57 1022.68 1022.76 1022.80 1022.81 1022.79 1022.74 1022.66 1022.56 1022.43 1022.28
1016.01 1015.98 1015.90 1015.80 1015.69 1015.58 1015.47 1015.34 1015.20 1015.06 1014.95 1014.87 1014.87 1014.94 1015.10 1015.33 1015.61 1015.92 1016.23 1016.52 1016.80 1017.07 1017.34 1017.63 1017.95 1018.30 1018.69 1019.09 1019.51 1019.91 1020.30 1020.67 1021.00 1021.30 1021.58 1021.83 1022.05 1022.25 1022.40 1022.52 1022.61 1022.66 1022.68 1022.66 1022.61 1022.53 1022.42 1022.28 1022.11
1015.96 1015.92 1015.83 1015.72 1015.61 1015.50 1015.39 1015.26 1015.11 1014.95 1014.79 1014.67 1014.60 1014.62 1014.72 1014.90 1015.16 1015.45 1015.77 1016.08 1016.38 1016.68 1016.97 1017.28 1017.60 1017.96 1018.35 1018.76 1019.18 1019.60 1020.00 1020.38 1020.73 1021.05 1021.34 1021.60 1021.82 1022.02 1022.18 1022.31 1022.40 1022.47 1022.50 1022.49 1022.45 1022.38 1022.26 1022.12 1021.96
1015.90 1015.88 1015.79 1015.69 1015.58 1015.46 1015.33 1015.18 1014.99 1014.78 1014.57 1014.38 1014.26 1014.21 1014.26 1014.41 1014.64 1014.93 1015.26 1015.59 1015.92 1016.24 1016.56 1016.88 1017.23 1017.60 1018.00 1018.42 1018.86 1019.29 1019.70 1020.10 1020.46 1020.78 1021.07 1021.33 1021.55 1021.75 1021.92 1022.06 1022.17 1022.24 1022.29 1022.30 1022.28 1022.22 1022.12 1021.99 1021.83
1015.86 1015.85 1015.79 1015.70 1015.60 1015.47 1015.30 1015.10 1014.86 1014.58 1014.29 1014.03 1013.84 1013.74 1013.74 1013.87 1014.09 1014.38 1014.72 1015.08 1015.44 1015.79 1016.13 1016.48 1016.85 1017.24 1017.66 1018.10 1018.55 1019.00 1019.43 1019.84 1020.20 1020.52 1020.81 1021.06 1021.29 1021.48 1021.66 1021.81 1021.93 1022.03 1022.09 1022.13 1022.12 1022.08 1022.00 1021.88 1021.74
1015.81 1015.85 1015.82 1015.76 1015.65 1015.50 1015.30 1015.03 1014.70 1014.34 1013.96 1013.62 1013.36 1013.20 1013.18 1013.29 1013.51 1013.82 1014.19 1014.58 1014.97 1015.35 1015.72 1016.10 1016.50 1016.91 1017.36 1017.83 1018.30 1018.77 1019.21 1019.62 1019.99 1020.31 1020.59 1020.83 1021.05 1021.25 1021.43 1021.60 1021.74 1021.86 1021.95 1022.00 1022.02 1022.00 1021.93 1021.83 1021.69
1015.76 1015.84 1015.87 1015.83 1015.74 1015.56 1015.30 1014.95 1014.53 1014.05 1013.58 1013.15 1012.81 1012.61 1012.57 1012.68 1012.92 1013.26 1013.66 1014.08 1014.51 1014.93 1015.34 1015.75 1016.18 1016.62 1017.10 1017.60 1018.10 1018.59 1019.05 1019.46 1019.83 1020.15 1020.42 1020.67 1020.89 1021.09 1021.28 1021.46 1021.62 1021.77 1021.88 1021.95 1021.99 1021.98 1021.93 1021.83 1021.70
1015.68 1015.83 1015.91 1015.91 1015.82 1015.62 1015.30 1014.85 1014.31 1013.72 1013.13 1012.60 1012.20 1011.96 1011.90 1012.02 1012.30 1012.68 1013.13 1013.61 1014.08 1014.54 1014.98 1015.43 1015.89 1016.37 1016.87 1017.40 1017.93 1018.44 1018.91 1019.34 1019.72 1020.04 1020.32 1020.56 1020.79 1021.00 1021.21 1021.41 1021.60 1021.76 1021.90 1021.99 1022.04 1022.04 1022.00 1021.90 1021.77
1015.56 1015.78 1015.93 1015.98 1015.90 1015.66 1015.27 1014.72 1014.05 1013.33 1012.62 1012.00 1011.53 1011.25 1011.19 1011.34 1011.66 1012.10 1012.60 1013.14 1013.66 1014.16 1014.65 1015.12 1015.61 1016.12 1016.65 1017.20 1017.75 1018.29 1018.79 1019.24 1019.62 1019.96 1020.25 1020.51 1020.75 1020.98 1021.21 1021.44 1021.65 1021.84 1021.99 1022.10 1022.16 1022.17 1022.13 1022.04 1021.91
1015.39 1015.70 1015.92 1016.01 1015.93 1015.66 1015.18 1014.53 1013.73 1012.88 1012.05 1011.33 1010.80 1010.50 1010.45 1010.62 1011.00 1011.50 1012.08 1012.67 1013.25 1013.80 1014.32 1014.82 1015.33 1015.85 1016.40 1016.97 1017.55 1018.11 1018.63 1019.10 1019.51 1019.87 1020.18 1020.46 1020.73 1020.99 1021.25 1021.51 1021.75 1021.96 1022.14 1022.26 1022.34 1022.35 1022.32 1022.23 1022.10
1015.18 1015.57 1015.85 1015.98 1015.90 1015.59 1015.03 1014.27 1013.35 1012.37 1011.42 1010.62 1010.04 1009.72 1009.68 1009.91 1010.34 1010.92 1011.56 1012.22 1012.85 1013.44 1013.98 1014.50 1015.02 1015.55 1016.11 1016.69 1017.28 1017.86 1018.40 1018.90 1019.34 1019.73 1020.08 1020.40 1020.70 1021.00 1021.29 1021.58 1021.85 1022.09 1022.28 1022.43 1022.52 1022.54 1022.52 1022.45 1022.33
1014.93 1015.38 1015.72 1015.88 1015.79 1015.44 1014.80 1013.93 1012.90 1011.81 1010.78 1009.91 1009.29 1008.97 1008.96 1009.23 1009.72 1010.37 1011.08 1011.79 1012.47 1013.08 1013.64 1014.17 1014.68 1015.21 1015.76 1016.34 1016.94 1017.53 1018.10 1018.63 1019.11 1019.54 1019.93 1020.29 1020.63 1020.97 1021.30 1021.61 1021.91 1022.18 1022.39 1022.56 1022.66 1022.71 1022.71 1022.66 1022.57
1014.64 1015.15 1015.53 1015.69 1015.59 1015.19 1014.48 1013.53 1012.41 1011.24 1010.14 1009.23 1008.60 1008.29 1008.31 1008.63 1009.18 1009.89 1010.65 1011.41 1012.12 1012.75 1013.32 1013.83 1014.33 1014.84 1015.38 1015.95 1016.54 1017.14 1017.74 1018.30 1018.82 1019.29 1019.72 1020.13 1020.51 1020.89 1021.25 1021.59 1021.92 1022.20 1022.44 1022.63 1022.75 1022.83 1022.85 1022.84 1022.78
1014.31 1014.85 1015.25 1015.41 1015.28 1014.84 1014.08 1013.07 1011.90 1010.68 1009.56 1008.64 1008.02 1007.73 1007.79 1008.15 1008.75 1009.50 1010.30 1011.09 1011.82 1012.45 1013.01 1013.51 1013.98 1014.47 1014.99 1015.54 1016.13 1016.74 1017.35 1017.94 1018.49 1019.01 1019.49 1019.93 1020.36 1020.76 1021.15 1021.52 1021.86 1022.16 1022.42 1022.62 1022.77 1022.87 1022.93 1022.95 1022.94
1013.92 1014.48 1014.87 1015.02 1014.86 1014.39 1013.60 1012.57 1011.39 1010.18 1009.07 1008.18 1007.59 1007.34 1007.44 1007.84 1008.47 1009.24 1010.05 1010.85 1011.57 1012.20 1012.74 1013.22 1013.67 1014.13 1014.62 1015.16 1015.75 1016.36 1016.98 1017.59 1018.18 1018.73 1019.25 1019.73 1020.18 1020.61 1021.02 1021.41 1021.76 1022.07 1022.34 1022.55 1022.72 1022.84 1022.93 1022.98 1023.01
1013.44 1014.00 1014.38 1014.50 1014.32 1013.83 1013.05 1012.03 1010.89 1009.73 1008.68 1007.85 1007.32 1007.12 1007.26 1007.67 1008.31 1009.08 1009.89 1010.66 1011.37 1011.98 1012.50 1012.96 1013.40 1013.84 1014.32 1014.85 1015.42 1016.03 1016.66 1017.29 1017.90 1018.48 1019.03 1019.54 1020.02 1020.47 1020.89 1021.28 1021.64 1021.95 1022.22 1022.44 1022.61 1022.75 1022.85 1022.92 1022.98
1012.87 1013.41 1013.75 1013.85 1013.66 1013.17 1012.42 1011.47 1010.41 1009.34 1008.40 1007.66 1007.20 1007.06 1007.21 1007.64 1008.26 1008.99 1009.77 1010.51 1011.18 1011.77 1012.28 1012.73 1013.15 1013.59 1014.06 1014.59 1015.16 1015.78 1016.41 1017.05 1017.68 1018.28 1018.85 1019.38 1019.88 1020.34 1020.77 1021.16 1021.51 1021.82 1022.09 1022.30 1022.47 1022.60 1022.71 1022.79 1022.85
1012.19 1012.69 1012.99 1013.06 1012.87 1012.41 1011.72 1010.86 1009.92 1008.99 1008.17 1007.55 1007.18 1007.08 1007.25 1007.66 1008.24 1008.92 1009.63 1010.33 1010.96 1011.52 1012.02 1012.47 1012.91 1013.36 1013.84 1014.37 1014.95 1015.57 1016.21 1016.86 1017.50 1018.11 1018.69 1019.24 1019.75 1020.22 1020.66 1021.05 1021.40 1021.70 1021.95 1022.15 1022.31 1022.43 1022.52 1022.58 1022.63
1011.41 1011.86 1012.12 1012.16 1011.96 1011.55 1010.94 1010.21 1009.41 1008.63 1007.95 1007.45 1007.16 1007.11 1007.28 1007.65 1008.16 1008.77 1009.41 1010.04 1010.64 1011.18 1011.68 1012.15 1012.61 1013.09 1013.60 1014.15 1014.74 1015.37 1016.02 1016.67 1017.31 1017.93 1018.53 1019.09 1019.62 1020.10 1020.55 1020.94 1021.29 1021.58 1021.82 1022.00 1022.13 1022.22 1022.28 1022.32 1022.34
1010.56 1010.95 1011.15 1011.16 1010.97 1010.60 1010.09 1009.47 1008.83 1008.21 1007.68 1007.29 1007.08 1007.05 1007.21 1007.52 1007.96 1008.48 1009.04 1009.61 1010.16 1010.70 1011.21 1011.71 1012.22 1012.74 1013.29 1013.87 1014.49 1015.13 1015.78 1016.43 1017.08 1017.71 1018.31 1018.89 1019.43 1019.93 1020.39 1020.80 1021.15 1021.44 1021.66 1021.82 1021.92 1021.98 1022.00 1021.99 1021.98
Thickness
5740 5743 5745 5742 5732 5724 5720 5726 5733 5731 5735 5743 5744 5742 5742 5740 5736 5730 5739 5742 5741 5736 5731 5724 5721 5718 5716 5714 5711 5709 5707 5705 5704 5702 5701 5700 5699 5698 5697 5696 5695 5694 5694 5693 5692 5692 5691 5691 5690
5742 5744 5743 5739 5725 5716 5719 5730 5730 5735 5740 5741 5741 5741 5741 5741 5745 5742 5739 5738 5737 5734 5729 5725 5719 5716 5713 5711 5708 5706 5704 5702 5700 5698 5697 5695 5694 5692 5691 5690 5689 5688 5687 5686 5686 5685 5685 5684 5683
5743 5744 5740 5733 5723 5722 5724 5732 5736 5738 5740 5740 5739 5742 5742 5741 5743 5743 5742 5737 5734 5731 5727 5723 5717 5714 5711 5708 5705 5703 5701 5698 5696 5694 5692 5690 5688 5687 5685 5684 5683 5682 5681 5680 5679 5678 5678 5677 5677
5742 5740 5738 5730 5722 5729 5733 5737 5738 5736 5737 5740 5741 5738 5741 5741 5743 5743 5738 5735 5733 5729 5725 5720 5715 5711 5708 5705 5702 5700 5697 5695 5692 5690 5688 5686 5683 5681 5680 5678 5677 5676 5675 5674 5673 5672 5671 5671 5671
5741 5737 5727 5722 5724 5731 5737 5738 5738 5737 5737 5740 5740 5738 5738 5739 5739 5739 5735 5733 5731 5727 5723 5718 5712 5709 5706 5702 5699 5697 5694 5691 5688 5686 5683 5681 5678 5676 5674 5673 5671 5670 5669 5668 5667 5666 5666 5665 5664
5734 5733 5723 5719 5723 5730 5737 5738 5738 5738 5739 5739 5738 5737 5739 5738 5737 5735 5733 5730 5728 5724 5720 5715 5709 5706 5703 5699 5696 5693 5690 5687 5685 5682 5679 5676 5674 5672 5670 5668 5666 5665 5664 5662 5662 5661 5660 5659 5658
5729 5726 5721 5722 5722 5725 5732 5738 5739 5738 5737 5739 5742 5736 5738 5737 5734 5732 5730 5728 5725 5721 5717 5713 5708 5704 5700 5696 5693 5690 5687 5684 5681 5678 5675 5672 5670 5667 5665 5663 5661 5660 5658 5657 5656 5655 5655 5653 5652
5731 5726 5718 5719 5719 5723 5732 5734 5737 5738 5738 5741 5740 5736 5736 5736 5730 5727 5725 5723 5721 5717 5715 5711 5707 5703 5699 5694 5690 5686 5683 5680 5677 5674 5671 5668 5665 5663 5661 5659 5657 5655 5654 5652 5651 5650 5649 5648 5646
5725 5718 5713 5716 5718 5723 5729 5730 5733 5736 5737 5735 5737 5738 5733 5729 5725 5721 5718 5716 5715 5713 5712 5709 5706 5701 5697 5693 5687 5683 5679 5676 5673 5669 5666 5664 5662 5660 5657 5655 5652 5651 5649 5648 5646 5645 5643 5642 5641
5718 5710 5714 5720 5724 5725 5726 5728 5730 5729 5729 5730 5732 5730 5725 5722 5721 5719 5717 5714 5712 5710 5709 5707 5703 5699 5694 5690 5685 5681 5677 5673 5670 5667 5664 5661 5658 5656 5654 5650 5648 5646 5644 5643 5641 5640 5639 5638 5639
5713 5711 5715 5718 5722 5722 5721 5724 5727 5725 5724 5731 5733 5733 5725 5721 5720 5720 5720 5718 5713 5710 5707 5704 5700 5696 5691 5687 5682 5678 5674 5670 5667 5664 5661 5657 5654 5652 5649 5647 5645 5643 5641 5640 5637 5637 5636 5634 5633
5707 5710 5712 5716 5715 5715 5717 5720 5721 5723 5729 5736 5736 5734 5726 5722 5721 5721 5720 5717 5712 5708 5704 5701 5697 5692 5688 5684 5680 5675 5671 5667 5664 5660 5657 5654 5651 5648 5646 5644 5641 5639 5637 5635 5633 5632 5631 5629 5628
5701 5704 5707 5710 5709 5711 5712 5714 5718 5723 5730 5731 5728 5726 5725 5724 5723 5722 5720 5715 5710 5705 5701 5698 5694 5690 5685 5680 5677 5672 5668 5664 5660 5656 5652 5650 5647 5644 5642 5639 5636 5634 5632 5630 5628 5627 5626 5624 5622
5698 5699 5701 5704 5705 5705 5705 5711 5710 5721 5727 5724 5722 5723 5724 5724 5721 5719 5714 5711 5707 5703 5700 5696 5692 5687 5682 5677 5673 5669 5665 5660 5657 5652 5649 5645 5643 5640 5637 5635 5632 5630 5627 5625 5623 5621 5619 5618 5616
5690 5689 5694 5697 5698 5700 5698 5701 5709 5721 5720 5718 5721 5722 5721 5720 5718 5716 5714 5710 5707 5703 5699 5694 5689 5685 5679 5675 5670 5666 5661 5657 5652 5648 5645 5641 5638 5635 5632 5630 5627 5624 5621 5619 5616 5615 5612 5611 5609
5681 5680 5681 5691 5691 5691 5689 5696 5712 5716 5712 5715 5719 5720 5717 5716 5715 5714 5712 5708 5705 5701 5696 5691 5686 5681 5676 5672 5667 5662 5657 5652 5648 5644 5640 5636 5633 5630 5627 5624 5621 5618 5615 5612 5610 5608 5607 5605 5603
5670 5672 5675 5680 5684 5684 5685 5692 5706 5709 5706 5711 5717 5718 5716 5715 5712 5711 5709 5705 5702 5698 5693 5688 5682 5678 5673 5667 5662 5657 5652 5647 5643 5638 5634 5631 5627 5624 5621 5618 5615 5611 5608 5606 5603 5601 5599 5598 5595
5663 5665 5667 5670 5677 5675 5678 5689 5702 5707 5704 5709 5715 5716 5714 5712 5712 5710 5705 5701 5697 5694 5689 5684 5678 5673 5667 5661 5655 5650 5645 5641 5636 5633 5629 5625 5621 5618 5615 5612 5608 5605 5602 5599 5596 5594 5590 5587 5585
5661 5660 5661 5668 5670 5665 5673 5684 5697 5704 5705 5707 5711 5714 5713 5712 5711 5705 5700 5695 5691 5688 5683 5679 5673 5668 5662 5657 5651 5645 5640 5635 5630 5626 5622 5618 5615 5612 5608 5605 5601 5597 5595 5591 5588 5585 5582 5579 5576
5650 5650 5655 5662 5660 5657 5667 5678 5695 5702 5703 5707 5710 5713 5713 5711 5706 5698 5694 5690 5687 5683 5679 5674 5669 5664 5659 5654 5648 5642 5635 5628 5623 5618 5614 5611 5608 5604 5601 5598 5594 5589 5586 5582 5579 5575 5573 5570 5566
5643 5646 5651 5651 5655 5653 5652 5673 5691 5700 5701 5702 5704 5707 5709 5707 5703 5697 5690 5686 5682 5678 5674 5669 5665 5659 5654 5648 5641 5633 5626 5620 5615 5611 5607 5603 5600 5596 5593 5589 5585 5580 5577 5574 5569 5566 5563 5561 5557
5639 5646 5643 5641 5639 5647 5645 5652 5684 5693 5695 5698 5700 5702 5703 5701 5698 5694 5687 5681 5677 5673 5668 5663 5658 5653 5647 5642 5637 5632 5626 5620 5614 5608 5602 5596 5592 5588 5584 5580 5576 5572 5568 5564 5560 5556 5552 5548 5547
5640 5639 5633 5632 5633 5636 5642 5639 5673 5688 5688 5697 5699 5698 5697 5695 5692 5688 5683 5677 5671 5665 5660 5656 5651 5646 5640 5636 5632 5627 5622 5616 5608 5601 5595 5589 5584 5579 5575 5571 5567 5563 5559 5554 5550 5546 5542 5538 5535
5627 5624 5619 5620 5625 5625 5642 5637 5660 5683 5687 5691 5694 5693 5690 5688 5684 5680 5675 5669 5663 5656 5651 5647 5643 5638 5633 5629 5626 5622 5616 5609 5601 5595 5589 5583 5577 5571 5566 5562 5558 5554 5549 5544 5540 5535 5532 5527 5524
5622 5620 5612 5613 5616 5628 5635 5631 5656 5682 5684 5683 5683 5686 5685 5681 5677 5673 5667 5662 5656 5649 5645 5641 5637 5632 5627 5622 5619 5615 5609 5603 5597 5590 5584 5577 5571 5565 5559 5554 5549 5545 5539 5534 5529 5525 5522 5517 5513
5622 5622 5615 5612 5620 5628 5619 5629 5662 5677 5677 5675 5675 5676 5675 5673 5670 5666 5661 5657 5651 5645 5639 5635 5631 5626 5621 5616 5612 5608 5602 5596 5590 5584 5578 5572 5566 5559 5552 5546 5540 5535 5530 5524 5520 5516 5511 5507 5503
5615 5616 5628 5618 5612 5610 5627 5640 5656 5670 5671 5669 5670 5669 5669 5666 5661 5658 5654 5650 5646 5640 5634 5630 5626 5621 5615 5610 5605 5600 5594 5588 5582 5575 5569 5563 5557 5550 5543 5537 5531 5525 5520 5515 5510 5506 5502 5497 5493
5622 5620 5607 5604 5600 5604 5622 5630 5645 5659 5663 5664 5665 5665 5663 5658 5654 5651 5647 5643 5639 5634 5628 5624 5620 5615 5609 5603 5598 5592 5587 5580 5574 5567 5561 5555 5548 5541 5534 5528 5522 5517 5511 5506 5501 5496 5492 5487 5483
5607 5607 5612 5611 5612 5609 5614 5632 5654 5657 5656 5655 5657 5658 5656 5653 5648 5644 5641 5637 5632 5627 5622 5617 5613 5608 5602 5597 5591 5585 5579 5572 5566 5559 5553 5546 5539 5532 5526 5520 5514 5508 5503 5498 5492 5488 5483 5478 5474
5616 5617 5614 5606 5606 5608 5613 5630 5654 5650 5649 5647 5649 5650 5650 5647 5643 5639 5635 5631 5626 5621 5616 5612 5607 5602 5597 5591 5585 5579 5571 5564 5557 5551 5545 5537 5531 5524 5517 5511 5505 5500 5494 5489 5484 5480 5474 5470 5466